Hourly Weather Bastaushi

Today, 19 June, Saturday

Time Temperature Precipitation Wind Pressure Humidity
00:00 +21°C° 0 mm 3 mps 715 mmHg 45%
01:00 +20°C° 0 mm 2 mps 714 mmHg 45%
02:00 +20°C° 0 mm 2 mps 714 mmHg 46%
03:00 +20°C° 0 mm 1 mps 714 mmHg 46%
04:00 +21°C° 0 mm 1 mps 714 mmHg 47%
05:00 +21°C° 0 mm 2 mps 714 mmHg 49%
06:00 +21°C° 0 mm 2 mps 714 mmHg 50%
07:00 +24°C° 0 mm 2 mps 714 mmHg 46%
08:00 +26°C° 0 mm 2 mps 714 mmHg 43%
09:00 +27°C° 0 mm 2 mps 714 mmHg 39%
10:00 +29°C° 0 mm 2 mps 714 mmHg 35%
11:00 +30°C° 0 mm 2 mps 714 mmHg 32%
12:00 +31°C° 0 mm 2 mps 714 mmHg 28%
13:00 +32°C° 0 mm 2 mps 713 mmHg 28%
14:00 +32°C° 0 mm 2 mps 713 mmHg 27%
15:00 +32°C° 0 mm 2 mps 712 mmHg 26%
16:00 +29°C° 0.2 mm 3 mps 712 mmHg 39%
17:00 +26°C° 0.2 mm 5 mps 712 mmHg 51%
18:00 +22°C° 0.2 mm 6 mps 713 mmHg 63%
19:00 +21°C° 0.1 mm 5 mps 713 mmHg 66%
20:00 +20°C° 0.1 mm 4 mps 713 mmHg 70%
21:00 +19°C° 0.1 mm 4 mps 713 mmHg 73%
22:00 +18°C° 0.1 mm 3 mps 713 mmHg 77%
23:00 +17°C° 0.1 mm 3 mps 713 mmHg 81%

Tomorrow, 20 June, Sunday

Time Temperature Precipitation Wind Pressure Humidity
00:00 +16°C° 0.1 mm 3 mps 713 mmHg 85%
01:00 +14°C° 0.5 mm 3 mps 713 mmHg 88%
02:00 +14°C° 0.5 mm 3 mps 713 mmHg 90%
03:00 +14°C° 0.5 mm 2 mps 713 mmHg 93%
04:00 +13°C° 0.2 mm 3 mps 714 mmHg 91%
05:00 +13°C° 0.2 mm 3 mps 715 mmHg 89%
06:00 +13°C° 0.2 mm 4 mps 716 mmHg 87%
07:00 +13°C° 0 mm 4 mps 717 mmHg 81%
08:00 +13°C° 0 mm 5 mps 717 mmHg 76%
09:00 +13°C° 0 mm 5 mps 718 mmHg 70%
10:00 +14°C° 0 mm 5 mps 719 mmHg 65%
11:00 +14°C° 0 mm 5 mps 720 mmHg 60%
12:00 +14°C° 0 mm 5 mps 720 mmHg 54%
13:00 +15°C° 0 mm 5 mps 721 mmHg 49%
14:00 +17°C° 0 mm 4 mps 721 mmHg 44%
15:00 +17°C° 0 mm 4 mps 721 mmHg 39%
16:00 +17°C° 0 mm 4 mps 721 mmHg 39%
17:00 +16°C° 0 mm 5 mps 721 mmHg 39%
18:00 +16°C° 0 mm 5 mps 721 mmHg 39%
19:00 +14°C° 0 mm 4 mps 721 mmHg 45%
20:00 +12°C° 0 mm 3 mps 721 mmHg 51%
21:00 +12°C° 0 mm 1 mps 721 mmHg 56%
22:00 +10°C° 0 mm 2 mps 721 mmHg 58%
23:00 +9°C° 0 mm 2 mps 721 mmHg 60%

Day after tomorrow, 21 June, Monday

Time Temperature Precipitation Wind Pressure Humidity
00:00 +9°C° 0 mm 2 mps 721 mmHg 62%
01:00 +8°C° 0 mm 2 mps 721 mmHg 62%
02:00 +8°C° 0 mm 2 mps 721 mmHg 63%
03:00 +9°C° 0 mm 1 mps 721 mmHg 64%
04:00 +9°C° 0 mm 2 mps 721 mmHg 61%
05:00 +10°C° 0 mm 2 mps 720 mmHg 58%
06:00 +12°C° 0 mm 2 mps 720 mmHg 55%
07:00 +13°C° 0 mm 3 mps 720 mmHg 49%
08:00 +16°C° 0 mm 3 mps 720 mmHg 43%
09:00 +18°C° 0 mm 4 mps 719 mmHg 37%
10:00 +19°C° 0 mm 4 mps 719 mmHg 33%
11:00 +21°C° 0 mm 5 mps 719 mmHg 29%
12:00 +22°C° 0 mm 5 mps 718 mmHg 25%
13:00 +20°C° 0 mm 5 mps 718 mmHg 34%
14:00 +19°C° 0 mm 5 mps 718 mmHg 44%
15:00 +16°C° 0 mm 5 mps 717 mmHg 53%
16:00 +15°C° 0.6 mm 5 mps 718 mmHg 63%
17:00 +14°C° 0.6 mm 4 mps 718 mmHg 72%
18:00 +13°C° 0.6 mm 4 mps 718 mmHg 82%
19:00 +13°C° 0.2 mm 4 mps 718 mmHg 83%
20:00 +12°C° 0.2 mm 3 mps 718 mmHg 85%
21:00 +12°C° 0.2 mm 3 mps 717 mmHg 86%
22:00 +13°C° 0.9 mm 2 mps 717 mmHg 88%
23:00 +13°C° 0.9 mm 2 mps 717 mmHg 89%

22 June, Tuesday

Time Temperature Precipitation Wind Pressure Humidity
00:00 +13°C° 0.9 mm 2 mps 717 mmHg 90%
01:00 +13°C° 0.3 mm 2 mps 717 mmHg 91%
02:00 +13°C° 0.3 mm 1 mps 716 mmHg 91%
03:00 +13°C° 0.3 mm 1 mps 716 mmHg 92%
04:00 +13°C° 0.4 mm 1 mps 716 mmHg 92%
05:00 +13°C° 0.4 mm 1 mps 717 mmHg 92%
06:00 +13°C° 0.4 mm 2 mps 717 mmHg 92%
07:00 +14°C° 0.4 mm 2 mps 717 mmHg 85%
08:00 +14°C° 0.4 mm 3 mps 718 mmHg 79%
09:00 +15°C° 0.4 mm 4 mps 718 mmHg 72%
10:00 +16°C° 0.1 mm 5 mps 718 mmHg 64%
11:00 +17°C° 0.1 mm 5 mps 719 mmHg 56%
12:00 +19°C° 0.1 mm 6 mps 719 mmHg 47%
13:00 +19°C° 0 mm 6 mps 719 mmHg 45%
14:00 +19°C° 0 mm 6 mps 719 mmHg 42%
15:00 +19°C° 0 mm 6 mps 720 mmHg 40%
16:00 +17°C° 0 mm 6 mps 720 mmHg 41%
17:00 +17°C° 0 mm 5 mps 721 mmHg 43%
18:00 +17°C° 0 mm 4 mps 721 mmHg 45%
19:00 +15°C° 0 mm 4 mps 721 mmHg 51%
20:00 +13°C° 0 mm 3 mps 722 mmHg 57%
21:00 +12°C° 0 mm 3 mps 722 mmHg 64%
22:00 +12°C° 0 mm 2 mps 722 mmHg 67%
23:00 +12°C° 0 mm 2 mps 722 mmHg 69%

23 June, Wednesday

Time Temperature Precipitation Wind Pressure Humidity
00:00 +10°C° 0 mm 2 mps 722 mmHg 72%
01:00 +9°C° 0 mm 2 mps 722 mmHg 74%
02:00 +10°C° 0 mm 1 mps 723 mmHg 76%
03:00 +9°C° 0 mm 1 mps 723 mmHg 77%
04:00 +10°C° 0 mm 1 mps 723 mmHg 74%
05:00 +11°C° 0 mm 1 mps 723 mmHg 71%
06:00 +11°C° 0 mm 0 mps 723 mmHg 68%
07:00 +13°C° 0 mm 1 mps 723 mmHg 62%
08:00 +15°C° 0 mm 1 mps 723 mmHg 57%
09:00 +16°C° 0 mm 1 mps 723 mmHg 52%
10:00 +17°C° 0 mm 2 mps 723 mmHg 48%
11:00 +18°C° 0 mm 2 mps 722 mmHg 45%
12:00 +19°C° 0 mm 2 mps 722 mmHg 41%
13:00 +20°C° 0 mm 3 mps 721 mmHg 39%
14:00 +20°C° 0 mm 3 mps 721 mmHg 37%
15:00 +21°C° 0 mm 3 mps 720 mmHg 36%
16:00 +21°C° 0 mm 3 mps 720 mmHg 36%
17:00 +21°C° 0 mm 3 mps 719 mmHg 37%
18:00 +20°C° 0 mm 3 mps 719 mmHg 38%
19:00 +20°C° 0 mm 3 mps 718 mmHg 40%
20:00 +19°C° 0 mm 2 mps 718 mmHg 42%
21:00 +18°C° 0 mm 2 mps 717 mmHg 45%
22:00 +17°C° 0.1 mm 2 mps 717 mmHg 48%
23:00 +18°C° 0.1 mm 1 mps 717 mmHg 51%

24 June, Thursday

Time Temperature Precipitation Wind Pressure Humidity
00:00 +16°C° 0.1 mm 1 mps 717 mmHg 55%
01:00 +16°C° 0.4 mm 1 mps 716 mmHg 61%
02:00 +15°C° 0.4 mm 2 mps 716 mmHg 67%
03:00 +15°C° 0.4 mm 2 mps 716 mmHg 73%
04:00 +15°C° 0.1 mm 2 mps 716 mmHg 75%
05:00 +15°C° 0.1 mm 2 mps 716 mmHg 76%
06:00 +15°C° 0.1 mm 2 mps 716 mmHg 77%
07:00 +15°C° 0.1 mm 2 mps 716 mmHg 76%
08:00 +14°C° 0.1 mm 3 mps 716 mmHg 74%
09:00 +16°C° 0.1 mm 3 mps 716 mmHg 72%
10:00 +14°C° 0.5 mm 3 mps 716 mmHg 74%
11:00 +14°C° 0.5 mm 3 mps 716 mmHg 75%
12:00 +13°C° 0.5 mm 3 mps 716 mmHg 76%
13:00 +14°C° 0.2 mm 3 mps 717 mmHg 72%
14:00 +14°C° 0.2 mm 3 mps 717 mmHg 68%
15:00 +15°C° 0.2 mm 4 mps 717 mmHg 64%
16:00 +15°C° 0 mm 4 mps 717 mmHg 60%
17:00 +17°C° 0 mm 4 mps 717 mmHg 56%
18:00 +17°C° 0 mm 4 mps 717 mmHg 52%
19:00 +16°C° 0 mm 3 mps 718 mmHg 58%
20:00 +13°C° 0 mm 3 mps 718 mmHg 63%
21:00 +12°C° 0 mm 3 mps 718 mmHg 68%
22:00 +12°C° 0 mm 2 mps 719 mmHg 70%
23:00 +12°C° 0 mm 2 mps 719 mmHg 73%
Show more